EW3370 Weather Reports


Display with metric or nautical units.
time (UTC)temp
F
wind
direction
speed
MPH
gust
MPH
rain 1hr
in
rain 24hr
in
rain mn
in
humidity
%
barometer
mb
20260506204529 71 343 7.0 11.0 0.00 0.00 0.00 66 1016.7
20260506204037 71 306 6.0 11.0 0.00 0.00 0.00 65 1016.7
20260506203543 71 282 4.0 12.0 0.00 0.00 0.00 67 1016.8
20260506203049 70 319 8.0 12.0 0.00 0.00 0.00 66 1016.7
20260506202531 70 322 6.0 11.0 0.00 0.00 0.00 68 1016.8
20260506202036 70 268 5.0 11.0 0.00 0.00 0.00 69 1016.8
20260506201520 70 311 7.0 11.0 0.00 0.00 0.00 68 1016.9
20260506201022 70 330 6.0 11.0 0.00 0.00 0.00 68 1017.0
20260506200545 71 340 6.0 10.0 0.00 0.00 0.00 68 1017.0
20260506200029 70 252 5.0 10.0 0.00 0.00 0.00 68 1017.0
20260506195558 70 304 7.0 10.0 0.00 0.00 0.00 67 1017.1
20260506195046 70 313 5.0 11.0 0.00 0.00 0.00 69 1017.2
20260506194529 70 298 6.0 11.0 0.00 0.00 0.00 67 1017.2
20260506194029 70 292 6.0 11.0 0.00 0.00 0.00 66 1017.3
20260506193532 71 273 5.0 11.0 0.00 0.00 0.00 66 1017.3
20260506193055 70 259 5.0 11.0 0.00 0.00 0.00 67 1017.3
20260506192521 70 338 5.0 11.0 0.00 0.00 0.00 66 1017.3
20260506192027 70 247 4.0 11.0 0.00 0.00 0.00 67 1017.4
20260506191526 70 312 5.0 11.0 0.00 0.00 0.00 67 1017.5
20260506191028 70 271 6.0 10.0 0.00 0.00 0.00 66 1017.6
20260506190532 70 298 5.0 9.0 0.00 0.00 0.00 65 1017.6
20260506190031 70 288 5.0 9.0 0.00 0.00 0.00 65 1017.5
20260506185558 70 302 5.0 9.0 0.00 0.00 0.00 66 1017.6
20260506185040 70 292 5.0 11.0 0.00 0.00 0.00 66 1017.6
20260506184522 70 233 6.0 11.0 0.00 0.00 0.00 66 1017.7
20260506184047 70 290 5.0 10.0 0.00 0.00 0.00 67 1017.7
20260506183530 70 244 3.0 8.0 0.00 0.00 0.00 66 1017.8
20260506183041 70 254 4.0 8.0 0.00 0.00 0.00 67 1017.8
20260506182534 70 275 4.0 8.0 0.00 0.00 0.00 66 1017.8
20260506182035 69 322 3.0 7.0 0.00 0.00 0.00 67 1017.8
20260506181538 69 275 4.0 8.0 0.00 0.00 0.00 67 1017.9
20260506181026 69 265 3.0 9.0 0.00 0.00 0.00 67 1017.8
20260506180525 69 257 4.0 9.0 0.00 0.00 0.00 67 1017.9
20260506180030 69 252 4.0 8.0 0.00 0.00 0.00 67 1017.9
20260506175533 69 256 4.0 8.0 0.00 0.00 0.00 66 1018.0
20260506175044 69 231 4.0 11.0 0.00 0.00 0.00 68 1018.0
20260506174526 69 318 4.0 11.0 0.00 0.00 0.00 68 1018.1
20260506174024 69 280 4.0 8.0 0.00 0.00 0.00 67 1018.1
20260506173527 69 290 4.0 8.0 0.00 0.00 0.00 68 1018.0
20260506173040 69 234 4.0 8.0 0.00 0.00 0.00 68 1018.0
20260506172545 69 254 4.0 8.0 0.00 0.00 0.00 68 1018.1
20260506172029 68 289 3.0 8.0 0.00 0.00 0.00 69 1018.2
20260506171527 68 320 4.0 7.0 0.00 0.00 0.00 69 1018.2
20260506171034 68 337 2.0 8.0 0.00 0.00 0.00 69 1018.2
20260506170602 68 251 4.0 8.0 0.00 0.00 0.00 69 1018.2
20260506170029 68 303 4.0 7.0 0.00 0.00 0.00 69 1018.2
20260506165535 68 243 3.0 7.0 0.00 0.00 0.00 69 1018.2
20260506165039 68 341 4.0 9.0 0.00 0.00 0.00 69 1018.2
20260506164540 68 333 3.0 9.0 0.00 0.00 0.00 69 1018.2
20260506164044 68 300 3.0 6.0 0.00 0.00 0.00 68 1018.2
20260506163526 68 271 2.0 5.0 0.00 0.00 0.00 69 1018.2
20260506163025 68 302 2.0 4.0 0.00 0.00 0.00 68 1018.2
20260506162531 67 309 2.0 7.0 0.00 0.00 0.00 69 1018.2
20260506162037 67 279 2.0 7.0 0.00 0.00 0.00 68 1018.2
20260506161522 67 265 1.0 5.0 0.00 0.00 0.00 69 1018.3
20260506161027 67 320 1.0 4.0 0.00 0.00 0.00 69 1018.1
20260506160535 67 84 1.0 5.0 0.00 0.00 0.00 70 1018.2
20260506160018 66 84 0.0 3.0 0.00 0.00 0.00 70 1018.1
20260506155521 66 84 1.0 6.0 0.00 0.00 0.00 71 1018.2
20260506155024 65 84 1.0 6.0 0.00 0.00 0.00 71 1018.2
20260506154527 65 45 3.0 5.0 0.00 0.00 0.00 71 1018.1
20260506154036 64 90 1.0 6.0 0.00 0.00 0.00 72 1018.2
20260506153558 64 101 3.0 6.0 0.00 0.00 0.00 73 1018.1
20260506153020 63 75 2.0 6.0 0.00 0.00 0.00 74 1018.1
20260506152522 62 39 3.0 6.0 0.00 0.00 0.00 75 1018.1
20260506152047 62 46 4.0 5.0 0.00 0.00 0.00 75 1018.1
20260506151531 61 46 3.0 5.0 0.00 0.00 0.00 76 1018.1
20260506151057 61 50 3.0 5.0 0.00 0.00 0.00 77 1018.1
20260506150539 60 67 3.0 5.0 0.00 0.00 0.00 78 1018.2
20260506150043 60 69 2.0 5.0 0.00 0.00 0.00 79 1018.2
20260506145529 59 81 4.0 8.0 0.00 0.00 0.00 79 1018.2
20260506145037 58 61 3.0 8.0 0.00 0.00 0.00 80 1018.2
20260506144540 58 82 4.0 5.0 0.00 0.00 0.00 81 1018.2
20260506144026 58 99 3.0 7.0 0.00 0.00 0.00 82 1018.2
20260506143526 57 77 4.0 8.0 0.00 0.00 0.00 82 1018.1
20260506143040 57 105 4.0 8.0 0.00 0.00 0.00 83 1018.1
20260506142521 56 76 4.0 7.0 0.00 0.00 0.00 84 1018.1
20260506142048 56 69 4.0 7.0 0.00 0.00 0.00 84 1018.1
20260506141527 55 90 3.0 7.0 0.00 0.00 0.00 85 1018.0
20260506141029 55 67 2.0 8.0 0.00 0.00 0.00 86 1018.0
20260506140538 54 94 4.0 8.0 0.00 0.01 0.00 87 1018.0
20260506140023 54 111 4.0 8.0 0.00 0.01 0.00 86 1017.9
20260506135528 54 55 4.0 9.0 0.00 0.01 0.00 87 1017.9
20260506135042 53 43 5.0 9.0 0.00 0.01 0.00 87 1017.9
20260506134525 53 94 5.0 8.0 0.00 0.01 0.00 88 1017.9
20260506134054 53 94 4.0 7.0 0.00 0.01 0.00 88 1017.8
20260506133555 52 73 4.0 9.0 0.00 0.01 0.00 88 1017.7
20260506133033 52 84 5.0 9.0 0.00 0.01 0.00 89 1017.7
20260506132540 52 103 6.0 9.0 0.00 0.01 0.00 89 1017.6
20260506132021 52 88 6.0 9.0 0.00 0.01 0.00 89 1017.6
20260506131525 52 86 4.0 8.0 0.00 0.01 0.00 89 1017.6
20260506131054 52 101 4.0 7.0 0.00 0.01 0.00 89 1017.5
20260506130539 52 79 4.0 9.0 0.00 0.01 0.00 89 1017.5
20260506130020 52 79 4.0 9.0 0.00 0.01 0.00 89 1017.4
20260506125547 52 71 6.0 9.0 0.00 0.01 0.00 89 1017.4
20260506125029 52 92 5.0 8.0 0.00 0.01 0.00 89 1017.3
20260506124535 52 84 4.0 8.0 0.00 0.01 0.00 89 1017.3
20260506124043 52 94 4.0 8.0 0.00 0.01 0.00 89 1017.3
20260506123526 52 86 6.0 8.0 0.00 0.01 0.00 89 1017.2
20260506123027 52 82 5.0 8.0 0.00 0.01 0.00 89 1017.1
20260506122529 52 77 5.0 8.0 0.00 0.01 0.00 89 1017.1
20260506122042 52 95 4.0 8.0 0.00 0.01 0.00 89 1017.1
20260506121524 52 78 3.0 7.0 0.00 0.01 0.00 89 1017.1
20260506121033 52 84 5.0 7.0 0.00 0.01 0.00 89 1017.1
20260506120557 52 84 3.0 7.0 0.00 0.01 0.00 89 1017.1
20260506120038 53 76 4.0 8.0 0.00 0.01 0.00 89 1017.1
20260506115522 53 84 5.0 8.0 0.00 0.01 0.00 89 1017.1
20260506115027 53 80 4.0 8.0 0.00 0.01 0.00 89 1017.1
20260506114540 53 91 5.0 8.0 0.00 0.01 0.00 89 1017.1
20260506114022 53 89 5.0 8.0 0.00 0.01 0.00 89 1017.1
20260506113527 53 86 4.0 8.0 0.00 0.01 0.00 89 1017.1
20260506113034 53 88 4.0 7.0 0.00 0.01 0.00 89 1017.1
20260506112559 53 79 2.0 7.0 0.00 0.01 0.00 89 1017.1
20260506112023 53 80 4.0 8.0 0.00 0.01 0.00 89 1017.1
20260506111527 53 79 4.0 8.0 0.00 0.01 0.00 88 1017.0
20260506111029 53 87 5.0 8.0 0.00 0.01 0.00 88 1017.0
20260506110532 53 88 5.0 8.0 0.00 0.01 0.00 88 1017.0
20260506110059 53 74 4.0 7.0 0.00 0.01 0.00 88 1017.0
20260506105522 53 88 2.0 6.0 0.00 0.01 0.00 88 1017.0
20260506105023 53 91 3.0 7.0 0.00 0.01 0.00 88 1017.0
20260506104526 54 64 3.0 7.0 0.00 0.01 0.00 88 1017.0
20260506104028 54 79 5.0 7.0 0.00 0.01 0.00 89 1017.0
20260506103526 53 84 4.0 7.0 0.00 0.01 0.00 89 1017.0
20260506103022 53 80 3.0 5.0 0.00 0.01 0.00 89 1016.9
20260506102529 53 79 4.0 7.0 0.00 0.01 0.00 89 1016.9
20260506102034 53 82 4.0 7.0 0.00 0.01 0.00 89 1016.9
20260506101537 53 85 4.0 7.0 0.00 0.01 0.00 88 1016.8
20260506101022 53 92 4.0 8.0 0.00 0.01 0.00 88 1016.8
20260506100529 54 90 3.0 8.0 0.00 0.01 0.00 88 1016.8
20260506100030 54 90 5.0 8.0 0.00 0.01 0.00 88 1016.9
20260506095539 54 76 4.0 6.0 0.00 0.01 0.00 88 1016.9
20260506095044 54 81 3.0 5.0 0.00 0.01 0.00 88 1016.9
20260506094526 54 90 3.0 6.0 0.00 0.01 0.00 88 1016.9
20260506094029 54 90 3.0 6.0 0.00 0.01 0.00 88 1016.9
20260506093535 54 69 2.0 4.0 0.00 0.01 0.00 88 1016.8
20260506093027 54 88 2.0 6.0 0.00 0.01 0.00 87 1016.8
20260506092539 54 90 3.0 6.0 0.00 0.01 0.00 88 1016.9
20260506092022 54 70 3.0 5.0 0.00 0.01 0.00 87 1016.8
20260506091523 55 69 3.0 4.0 0.00 0.01 0.00 87 1016.9
20260506091054 55 67 3.0 4.0 0.00 0.01 0.00 87 1016.9
20260506090518 55 69 2.0 4.0 0.00 0.01 0.00 87 1017.0
20260506090023 55 72 2.0 3.0 0.00 0.01 0.00 87 1017.0
20260506085527 55 72 1.0 3.0 0.00 0.01 0.00 87 1017.0
20260506085039 55 72 1.0 5.0 0.00 0.01 0.00 87 1017.0
20260506084525 55 72 2.0 5.0 0.00 0.01 0.00 86 1017.0
20260506084028 55 62 2.0 4.0 0.00 0.01 0.00 86 1017.1
20260506083534 55 62 2.0 4.0 0.00 0.01 0.00 86 1017.2
20260506083035 55 62 2.0 4.0 0.00 0.01 0.00 86 1017.2
20260506082539 55 62 2.0 3.0 0.00 0.01 0.00 86 1017.2
20260506082047 55 62 2.0 4.0 0.00 0.01 0.00 85 1017.2
20260506081530 56 62 2.0 4.0 0.00 0.01 0.00 85 1017.3
20260506081031 56 54 2.0 4.0 0.00 0.01 0.00 85 1017.3
20260506080536 56 19 2.0 4.0 0.00 0.01 0.00 85 1017.3
20260506073036 57 284 1.0 2.0 0.00 0.01 0.00 84 1017.5
20260506072542 57 284 1.0 2.0 0.00 0.01 0.00 84 1017.5
20260506072023 57 284 1.0 2.0 0.00 0.01 0.00 84 1017.5
20260506071546 57 284 1.0 2.0 0.00 0.01 0.00 84 1017.6
20260506071027 57 284 1.0 2.0 0.00 0.01 0.00 83 1017.5
20260506070530 57 284 1.0 2.0 0.00 0.01 0.01 83 1017.5
20260506062038 59 284 1.0 2.0 0.00 0.01 0.01 81 1017.0
20260506061520 59 284 0.0 2.0 0.00 0.01 0.01 81 1017.1
20260506061019 59 284 0.0 1.0 0.00 0.01 0.01 81 1017.1
20260506060519 59 284 0.0 1.0 0.00 0.01 0.01 80 1017.2
20260506051042 60 284 0.0 3.0 0.00 0.01 0.01 78 1016.8
20260506050519 60 286 0.0 2.0 0.00 0.02 0.01 78 1016.8
20260506045021 60 286 1.0 3.0 0.00 0.02 0.01 77 1016.6
20260506044522 61 287 1.0 2.0 0.00 0.02 0.01 77 1016.6
20260506044026 61 287 1.0 3.0 0.00 0.02 0.01 76 1016.5
20260506043527 61 287 0.0 3.0 0.00 0.02 0.01 76 1016.4
20260506043028 61 287 1.0 4.0 0.00 0.02 0.01 76 1016.4
20260506042532 61 287 1.0 4.0 0.00 0.02 0.01 76 1016.3
20260506042037 61 288 2.0 4.0 0.00 0.02 0.01 76 1016.3
20260506041600 61 277 1.0 3.0 0.00 0.02 0.01 76 1016.3
20260506041027 61 272 0.0 4.0 0.00 0.02 0.01 76 1016.2
20260506040525 61 271 1.0 4.0 0.00 0.02 0.01 76 1016.2
20260506035521 61 271 2.0 3.0 0.00 0.02 0.01 75 1016.1
20260506035051 61 266 1.0 3.0 0.00 0.02 0.01 75 1016.0
20260506034536 61 267 2.0 4.0 0.00 0.02 0.01 75 1015.9
20260506034025 61 266 1.0 4.0 0.00 0.02 0.01 75 1015.8
20260506033526 61 300 2.0 4.0 0.00 0.02 0.01 74 1015.7
20260506033029 62 320 1.0 6.0 0.00 0.02 0.01 74 1015.6
20260506032530 62 321 2.0 6.0 0.00 0.02 0.01 74 1015.5
20260506032029 62 321 2.0 6.0 0.00 0.02 0.01 75 1015.5
20260506031530 62 330 2.0 6.0 0.00 0.02 0.01 75 1015.4
20260506031036 62 276 3.0 6.0 0.00 0.02 0.01 75 1015.4
20260506030523 62 254 3.0 8.0 0.00 0.02 0.01 75 1015.3
20260506030026 62 310 2.0 8.0 0.00 0.02 0.01 74 1015.2
20260506025534 62 322 2.0 7.0 0.00 0.02 0.01 74 1015.2
20260506025037 62 300 2.0 8.0 0.00 0.02 0.01 74 1015.1
20260506024523 62 323 3.0 8.0 0.00 0.02 0.01 73 1015.1
20260506024028 63 279 2.0 7.0 0.00 0.02 0.01 73 1015.0
20260506023551 63 313 4.0 7.0 0.00 0.02 0.01 74 1015.0
20260506023058 63 270 2.0 6.0 0.00 0.02 0.01 73 1014.9
20260506022525 63 308 3.0 8.0 0.00 0.02 0.01 73 1014.8
20260506022050 63 334 3.0 8.0 0.00 0.02 0.01 73 1014.8
20260506021531 63 17 4.0 7.0 0.00 0.02 0.01 73 1014.8
20260506021054 63 319 3.0 8.0 0.00 0.02 0.01 72 1014.7
20260506020558 63 327 3.0 8.0 0.00 0.02 0.01 72 1014.6
20260506020018 64 290 3.0 8.0 0.00 0.02 0.01 71 1014.6
20260506015523 64 250 4.0 9.0 0.00 0.02 0.01 71 1014.5
20260506015045 64 291 4.0 9.0 0.00 0.02 0.01 70 1014.5
20260506014525 64 317 5.0 9.0 0.00 0.02 0.01 69 1014.5
20260506014028 65 225 4.0 10.0 0.00 0.02 0.01 69 1014.4
20260506013534 65 254 4.0 10.0 0.00 0.02 0.01 68 1014.4
20260506013047 66 246 5.0 10.0 0.00 0.02 0.01 66 1014.3
20260506012555 66 269 4.0 10.0 0.00 0.02 0.01 67 1014.3
20260506012022 66 286 5.0 10.0 0.00 0.02 0.01 66 1014.2
20260506011524 66 275 5.0 10.0 0.00 0.02 0.01 65 1014.2
20260506011028 66 318 5.0 10.0 0.00 0.02 0.01 65 1014.1
20260506010531 66 273 4.0 10.0 0.00 0.02 0.01 65 1014.2
20260506010030 66 271 6.0 10.0 0.00 0.02 0.01 64 1014.2
20260506005540 66 293 4.0 9.0 0.00 0.02 0.01 63 1014.2
20260506005021 67 287 4.0 10.0 0.00 0.02 0.01 64 1014.2
20260506004521 67 285 5.0 11.0 0.00 0.02 0.01 64 1014.3
20260506004049 67 274 5.0 13.0 0.00 0.02 0.01 63 1014.3
20260506003530 67 289 5.0 13.0 0.00 0.02 0.01 63 1014.3
20260506003018 67 295 6.0 13.0 0.00 0.02 0.01 61 1014.3
20260506002542 67 324 5.0 11.0 0.00 0.02 0.01 62 1014.3
20260506002047 67 300 6.0 11.0 0.00 0.02 0.01 62 1014.4
20260506001527 67 236 6.0 11.0 0.00 0.02 0.01 61 1014.4
20260506001035 68 280 6.0 11.0 0.00 0.02 0.01 61 1014.4
20260506000539 68 284 5.0 12.0 0.00 0.02 0.01 59 1014.3
20260506000018 68 273 5.0 12.0 0.00 0.02 0.01 61 1014.3
20260505235525 68 276 6.0 12.0 0.00 0.02 0.01 62 1014.2
20260505235027 68 289 6.0 14.0 0.00 0.02 0.01 61 1014.3
20260505234529 68 304 6.0 14.0 0.00 0.02 0.01 63 1014.3
20260505234034 68 325 6.0 13.0 0.00 0.02 0.01 61 1014.2
20260505233521 69 323 6.0 11.0 0.00 0.02 0.01 59 1014.2
20260505233027 69 264 4.0 11.0 0.00 0.02 0.01 58 1014.3
20260505232535 69 308 6.0 11.0 0.00 0.02 0.01 59 1014.4
20260505232020 69 275 6.0 12.0 0.00 0.02 0.01 58 1014.4
20260505231522 70 266 6.0 12.0 0.00 0.02 0.01 58 1014.4
20260505231047 70 326 6.0 12.0 0.00 0.02 0.01 57 1014.3
20260505230531 70 315 5.0 11.0 0.00 0.02 0.01 57 1014.3
20260505230039 70 252 5.0 10.0 0.00 0.02 0.01 58 1014.4
20260505225543 70 305 5.0 11.0 0.00 0.02 0.01 59 1014.4
20260505225050 70 323 5.0 11.0 0.00 0.02 0.01 58 1014.4
20260505224555 70 298 7.0 12.0 0.00 0.02 0.01 57 1014.4
20260505224035 71 249 6.0 13.0 0.00 0.02 0.01 57 1014.4
20260505223538 71 281 7.0 13.0 0.00 0.02 0.01 56 1014.4
20260505223020 71 274 6.0 13.0 0.00 0.02 0.01 57 1014.5
20260505222523 71 259 6.0 12.0 0.00 0.02 0.01 55 1014.5
20260505222030 71 320 6.0 11.0 0.00 0.02 0.01 57 1014.5
20260505221532 71 271 4.0 13.0 0.00 0.02 0.01 57 1014.6
20260505221020 71 258 5.0 13.0 0.00 0.02 0.01 59 1014.6
20260505220520 71 271 5.0 13.0 0.00 0.02 0.01 59 1014.6
20260505220044 72 238 7.0 13.0 0.00 0.02 0.01 58 1014.7
20260505215523 72 250 6.0 13.0 0.00 0.02 0.01 58 1014.7
20260505215025 72 296 5.0 12.0 0.00 0.02 0.01 57 1014.7
20260505214527 71 263 5.0 12.0 0.00 0.02 0.01 56 1014.8
20260505214033 71 266 4.0 10.0 0.00 0.02 0.01 55 1014.8
20260505213536 71 315 5.0 10.0 0.00 0.02 0.01 56 1014.9
20260505213034 71 277 6.0 10.0 0.00 0.02 0.01 55 1014.9
20260505212542 71 344 6.0 10.0 0.00 0.02 0.01 56 1015.0
20260505212026 71 258 6.0 10.0 0.00 0.02 0.01 57 1015.0
20260505211528 71 267 5.0 9.0 0.00 0.02 0.01 57 1015.1
20260505211031 71 266 4.0 10.0 0.00 0.02 0.01 56 1015.0
20260505210530 71 246 5.0 10.0 0.00 0.02 0.01 58 1015.0
20260505210039 71 321 4.0 11.0 0.00 0.02 0.01 58 1015.1
20260505205525 71 246 5.0 11.0 0.00 0.02 0.01 56 1015.1
20260505205034 71 327 5.0 11.0 0.00 0.02 0.01 56 1015.1